• In Österreich
  • Länderverzeichnis
  • Für 7 Tage
  • Wassertemperatur
  • Satellitenkarten
  • Wetterkarte
  • News
  • Widgets
  • user-avatar
    Anmelden

    Stündliche Wetter Chyzhykove

    Heute, 18 Juni, Montag

    Zeit Temperatur Niederschläge Wind Luftdruck Luftfeuchtigkeit
    00:00 +18°C° 0 mm 3 m/S 746 mmHg 91%
    01:00 +17°C° 0 mm 3 m/S 746 mmHg 91%
    02:00 +17°C° 0 mm 3 m/S 746 mmHg 91%
    03:00 +17°C° 0 mm 3 m/S 746 mmHg 91%
    04:00 +16°C° 0 mm 3 m/S 746 mmHg 91%
    05:00 +16°C° 0 mm 3 m/S 746 mmHg 91%
    06:00 +18°C° 0 mm 3 m/S 747 mmHg 87%
    07:00 +19°C° 0 mm 3 m/S 747 mmHg 82%
    08:00 +20°C° 0 mm 3 m/S 747 mmHg 78%
    09:00 +22°C° 0 mm 3 m/S 747 mmHg 72%
    10:00 +24°C° 0 mm 3 m/S 747 mmHg 67%
    11:00 +25°C° 0 mm 3 m/S 747 mmHg 62%
    12:00 +25°C° 0 mm 3 m/S 747 mmHg 60%
    13:00 +26°C° 0 mm 3 m/S 747 mmHg 59%
    14:00 +26°C° 0 mm 3 m/S 747 mmHg 58%
    15:00 +26°C° 0 mm 3 m/S 747 mmHg 60%
    16:00 +26°C° 0 mm 2 m/S 747 mmHg 62%
    17:00 +25°C° 0 mm 2 m/S 747 mmHg 64%
    18:00 +24°C° 0 mm 2 m/S 747 mmHg 69%
    19:00 +21°C° 0 mm 2 m/S 747 mmHg 73%
    20:00 +20°C° 0 mm 2 m/S 747 mmHg 77%
    21:00 +19°C° 0 mm 2 m/S 747 mmHg 79%
    22:00 +18°C° 0 mm 2 m/S 747 mmHg 80%
    23:00 +18°C° 0 mm 2 m/S 747 mmHg 82%

    Morgen, 19 Juni, Dienstag

    Zeit Temperatur Niederschläge Wind Luftdruck Luftfeuchtigkeit
    00:00 +18°C° 0 mm 1 m/S 747 mmHg 83%
    01:00 +18°C° 0 mm 1 m/S 747 mmHg 84%
    02:00 +18°C° 0 mm 1 m/S 747 mmHg 85%
    03:00 +18°C° 0 mm 1 m/S 748 mmHg 85%
    04:00 +18°C° 0 mm 1 m/S 748 mmHg 85%
    05:00 +18°C° 0 mm 1 m/S 748 mmHg 85%
    06:00 +20°C° 0 mm 1 m/S 748 mmHg 80%
    07:00 +21°C° 0 mm 1 m/S 748 mmHg 76%
    08:00 +23°C° 0 mm 1 m/S 748 mmHg 71%
    09:00 +24°C° 0 mm 1 m/S 748 mmHg 67%
    10:00 +25°C° 0 mm 1 m/S 748 mmHg 63%
    11:00 +26°C° 0 mm 1 m/S 748 mmHg 60%
    12:00 +26°C° 0 mm 1 m/S 748 mmHg 59%
    13:00 +27°C° 0 mm 1 m/S 748 mmHg 58%
    14:00 +27°C° 0 mm 2 m/S 748 mmHg 57%
    15:00 +27°C° 0,2 mm 2 m/S 748 mmHg 60%
    16:00 +27°C° 0,2 mm 2 m/S 747 mmHg 64%
    17:00 +27°C° 0,2 mm 2 m/S 747 mmHg 67%
    18:00 +25°C° 0,1 mm 2 m/S 747 mmHg 72%
    19:00 +24°C° 0,1 mm 2 m/S 747 mmHg 77%
    20:00 +22°C° 0,1 mm 1 m/S 747 mmHg 82%
    21:00 +22°C° 0 mm 1 m/S 747 mmHg 84%
    22:00 +21°C° 0 mm 1 m/S 747 mmHg 86%
    23:00 +21°C° 0 mm 1 m/S 748 mmHg 88%

    übermorgen, 20 Juni, Mittwoch

    Zeit Temperatur Niederschläge Wind Luftdruck Luftfeuchtigkeit
    00:00 +19°C° 0 mm 2 m/S 748 mmHg 90%
    01:00 +19°C° 0 mm 2 m/S 748 mmHg 91%
    02:00 +19°C° 0 mm 2 m/S 748 mmHg 93%
    03:00 +19°C° 0 mm 2 m/S 748 mmHg 93%
    04:00 +19°C° 0 mm 2 m/S 748 mmHg 93%
    05:00 +19°C° 0 mm 2 m/S 749 mmHg 94%
    06:00 +20°C° 0 mm 2 m/S 749 mmHg 88%
    07:00 +21°C° 0 mm 3 m/S 749 mmHg 83%
    08:00 +24°C° 0 mm 3 m/S 749 mmHg 77%
    09:00 +24°C° 0 mm 3 m/S 749 mmHg 72%
    10:00 +25°C° 0 mm 3 m/S 749 mmHg 67%
    11:00 +26°C° 0 mm 3 m/S 749 mmHg 62%
    12:00 +27°C° 0 mm 3 m/S 749 mmHg 61%
    13:00 +27°C° 0 mm 4 m/S 749 mmHg 61%
    14:00 +27°C° 0 mm 4 m/S 749 mmHg 60%
    15:00 +27°C° 0 mm 4 m/S 749 mmHg 63%
    16:00 +27°C° 0 mm 3 m/S 749 mmHg 65%
    17:00 +27°C° 0 mm 3 m/S 749 mmHg 68%
    18:00 +25°C° 0 mm 3 m/S 749 mmHg 72%
    19:00 +23°C° 0 mm 2 m/S 749 mmHg 77%
    20:00 +21°C° 0 mm 2 m/S 749 mmHg 82%
    21:00 +20°C° 0 mm 2 m/S 749 mmHg 83%
    22:00 +20°C° 0 mm 1 m/S 749 mmHg 85%
    23:00 +19°C° 0 mm 1 m/S 750 mmHg 86%

    21 Juni, Donnerstag

    Zeit Temperatur Niederschläge Wind Luftdruck Luftfeuchtigkeit
    00:00 +19°C° 0 mm 1 m/S 750 mmHg 87%
    01:00 +18°C° 0 mm 1 m/S 750 mmHg 87%
    02:00 +16°C° 0 mm 0 m/S 750 mmHg 87%
    03:00 +16°C° 0 mm 0 m/S 750 mmHg 86%
    04:00 +16°C° 0 mm 0 m/S 750 mmHg 86%
    05:00 +17°C° 0 mm 0 m/S 749 mmHg 85%
    06:00 +18°C° 0 mm 0 m/S 750 mmHg 80%
    07:00 +22°C° 0 mm 1 m/S 750 mmHg 74%
    08:00 +24°C° 0 mm 1 m/S 750 mmHg 69%
    09:00 +25°C° 0 mm 1 m/S 749 mmHg 65%
    10:00 +25°C° 0 mm 1 m/S 749 mmHg 60%
    11:00 +26°C° 0 mm 1 m/S 749 mmHg 56%
    12:00 +27°C° 0 mm 1 m/S 749 mmHg 54%
    13:00 +28°C° 0 mm 1 m/S 748 mmHg 52%
    14:00 +28°C° 0 mm 1 m/S 748 mmHg 50%
    15:00 +28°C° 0 mm 1 m/S 748 mmHg 52%
    16:00 +28°C° 0 mm 1 m/S 748 mmHg 53%
    17:00 +28°C° 0 mm 1 m/S 747 mmHg 54%
    18:00 +26°C° 0 mm 1 m/S 747 mmHg 60%
    19:00 +24°C° 0 mm 1 m/S 747 mmHg 66%
    20:00 +21°C° 0 mm 2 m/S 747 mmHg 71%
    21:00 +21°C° 0 mm 2 m/S 747 mmHg 73%
    22:00 +20°C° 0 mm 2 m/S 746 mmHg 75%
    23:00 +19°C° 0 mm 2 m/S 746 mmHg 77%

    22 Juni, Freitag

    Zeit Temperatur Niederschläge Wind Luftdruck Luftfeuchtigkeit
    00:00 +19°C° 0 mm 2 m/S 746 mmHg 78%
    01:00 +18°C° 0 mm 2 m/S 746 mmHg 78%
    02:00 +18°C° 0 mm 2 m/S 745 mmHg 79%
    03:00 +18°C° 0 mm 2 m/S 745 mmHg 81%
    04:00 +18°C° 0 mm 3 m/S 745 mmHg 82%
    05:00 +18°C° 0 mm 3 m/S 745 mmHg 83%
    06:00 +20°C° 0 mm 3 m/S 744 mmHg 80%
    07:00 +21°C° 0 mm 3 m/S 744 mmHg 78%
    08:00 +24°C° 0 mm 3 m/S 744 mmHg 75%
    09:00 +26°C° 0 mm 4 m/S 744 mmHg 70%
    10:00 +27°C° 0 mm 4 m/S 744 mmHg 66%
    11:00 +29°C° 0 mm 4 m/S 743 mmHg 61%
    12:00 +29°C° 0,2 mm 4 m/S 743 mmHg 63%
    13:00 +29°C° 0,2 mm 5 m/S 743 mmHg 64%
    14:00 +29°C° 0,2 mm 5 m/S 742 mmHg 65%
    15:00 +29°C° 0,5 mm 5 m/S 742 mmHg 68%
    16:00 +29°C° 0,5 mm 4 m/S 742 mmHg 71%
    17:00 +28°C° 0,5 mm 3 m/S 741 mmHg 73%
    18:00 +27°C° 0,4 mm 3 m/S 741 mmHg 76%
    19:00 +25°C° 0,4 mm 3 m/S 741 mmHg 80%
    20:00 +24°C° 0,4 mm 2 m/S 741 mmHg 83%
    21:00 +23°C° 0,4 mm 2 m/S 741 mmHg 84%
    22:00 +23°C° 0,4 mm 2 m/S 741 mmHg 86%
    23:00 +21°C° 0,4 mm 2 m/S 740 mmHg 87%

    23 Juni, Samstag

    Zeit Temperatur Niederschläge Wind Luftdruck Luftfeuchtigkeit
    00:00 +21°C° 0,8 mm 2 m/S 740 mmHg 89%
    01:00 +20°C° 0,8 mm 3 m/S 740 mmHg 91%
    02:00 +20°C° 0,8 mm 3 m/S 740 mmHg 92%
    03:00 +20°C° 1,2 mm 3 m/S 740 mmHg 92%
    04:00 +20°C° 1,2 mm 3 m/S 740 mmHg 92%
    05:00 +20°C° 1,2 mm 2 m/S 740 mmHg 91%
    06:00 +21°C° 0 mm 3 m/S 739 mmHg 88%
    07:00 +24°C° 0 mm 3 m/S 739 mmHg 84%
    08:00 +25°C° 0 mm 4 m/S 739 mmHg 80%
    09:00 +25°C° 1 mm 4 m/S 740 mmHg 79%
    10:00 +25°C° 1 mm 5 m/S 740 mmHg 78%
    11:00 +25°C° 1 mm 5 m/S 740 mmHg 77%
    12:00 +23°C° 0,4 mm 6 m/S 740 mmHg 77%
    13:00 +22°C° 0,4 mm 6 m/S 741 mmHg 77%
    14:00 +21°C° 0,4 mm 6 m/S 741 mmHg 78%
    15:00 +20°C° 0,2 mm 6 m/S 741 mmHg 80%
    16:00 +17°C° 0,2 mm 6 m/S 742 mmHg 83%
    17:00 +16°C° 0,2 mm 6 m/S 742 mmHg 85%
    18:00 +15°C° 0,1 mm 6 m/S 742 mmHg 87%
    19:00 +14°C° 0,1 mm 5 m/S 743 mmHg 88%
    20:00 +13°C° 0,1 mm 4 m/S 743 mmHg 90%
    21:00 +13°C° 0 mm 4 m/S 743 mmHg 90%
    22:00 +13°C° 0 mm 4 m/S 743 mmHg 90%
    23:00 +13°C° 0 mm 4 m/S 744 mmHg 90%
    Mehr zeigen